owner,sensor,date,latitude,longitude,vertical_datum,direction_of_sea_water_velocity,sea_water_speed,upward_sea_water_velocity,qcFlag 
TABS,ioos:station:wmo:42051:1,2001-03-27T05:00:00Z,29.6350,-93.6417,2.0,251.2123602,8.228402032,-99999.0,'11133222,11111222,99999999' 
TABS,ioos:station:wmo:42051:1,2001-03-27T05:30:00Z,29.6350,-93.6417,2.0,284.4618488,10.13099205,-99999.0,'11111222,11111222,99999999' 
TABS,ioos:station:wmo:42051:1,2001-03-27T06:00:00Z,29.6350,-93.6417,2.0,291.6789594,10.39524891,-99999.0,'11111222,11111222,99999999' 
TABS,ioos:station:wmo:42051:1,2001-03-27T06:30:00Z,29.6350,-93.6417,2.0,286.5616015,7.15689877,-99999.0,'11133222,11111222,99999999' 
TABS,ioos:station:wmo:42051:1,2001-03-27T07:00:00Z,29.6350,-93.6417,2.0,264.8867413,7.630360411,-99999.0,'11133222,11111222,99999999' 
TABS,ioos:station:wmo:42051:1,2001-03-27T07:30:00Z,29.6350,-93.6417,2.0,281.155961,8.735044362,-99999.0,'11133222,11111222,99999999' 
TABS,ioos:station:wmo:42051:1,2001-03-27T08:00:00Z,29.6350,-93.6417,2.0,260.1718781,12.88914272,-99999.0,'11111222,11111222,99999999' 
TABS,ioos:station:wmo:42051:1,2001-03-27T08:30:00Z,29.6350,-93.6417,2.0,288.4759522,13.37960014,-99999.0,'11111222,11111222,99999999' 
TABS,ioos:station:wmo:42051:1,2001-03-27T09:00:00Z,29.6350,-93.6417,2.0,282.9667495,15.19750637,-99999.0,'11111222,11111222,99999999' 
TABS,ioos:station:wmo:42051:1,2001-03-27T09:30:00Z,29.6350,-93.6417,2.0,265.7842864,16.05342643,-99999.0,'11111222,11111222,99999999' 
TABS,ioos:station:wmo:42051:1,2001-03-27T10:00:00Z,29.6350,-93.6417,2.0,259.7406462,20.10136314,-99999.0,'11111222,11111222,99999999' 
TABS,ioos:station:wmo:42051:1,2001-03-27T10:30:00Z,29.6350,-93.6417,2.0,261.8312618,19.07350256,-99999.0,'11111222,11111222,99999999' 
TABS,ioos:station:wmo:42051:1,2001-03-27T11:00:00Z,29.6350,-93.6417,2.0,249.6492241,15.32663694,-99999.0,'11111222,11111222,99999999' 
TABS,ioos:station:wmo:42051:1,2001-03-27T11:30:00Z,29.6350,-93.6417,2.0,256.217534,21.86965249,-99999.0,'11111222,11111222,99999999' 
TABS,ioos:station:wmo:42051:1,2001-03-27T12:00:00Z,29.6350,-93.6417,2.0,245.2751389,31.60747538,-99999.0,'11111222,11111222,99999999' 
TABS,ioos:station:wmo:42051:1,2001-03-27T12:30:00Z,29.6350,-93.6417,2.0,257.7239666,17.9197154,-99999.0,'11111222,11111222,99999999' 
TABS,ioos:station:wmo:42051:1,2001-03-27T13:00:00Z,29.6350,-93.6417,2.0,250.8778556,17.67523974,-99999.0,'11111222,11111222,99999999' 
TABS,ioos:station:wmo:42051:1,2001-03-27T13:30:00Z,29.6350,-93.6417,2.0,255.7890667,16.74231167,-99999.0,'11111222,11111222,99999999' 
TABS,ioos:station:wmo:42051:1,2001-03-27T14:00:00Z,29.6350,-93.6417,2.0,248.98856,14.00090354,-99999.0,'11111222,11111222,99999999' 
TABS,ioos:station:wmo:42051:1,2001-03-27T14:30:00Z,29.6350,-93.6417,2.0,259.7835064,16.74548596,-99999.0,'11111222,11111222,99999999' 
TABS,ioos:station:wmo:42051:1,2001-03-27T15:00:00Z,29.6350,-93.6417,2.0,262.7077081,15.75743951,-99999.0,'11111222,11111222,99999999' 
TABS,ioos:station:wmo:42051:1,2001-03-27T15:30:00Z,29.6350,-93.6417,2.0,273.9554086,14.06349174,-99999.0,'11111222,11111222,99999999' 
TABS,ioos:station:wmo:42051:1,2001-03-27T16:00:00Z,29.6350,-93.6417,2.0,261.3859997,16.75902742,-99999.0,'11111222,11111222,99999999' 
TABS,ioos:station:wmo:42051:1,2001-03-27T16:30:00Z,29.6350,-93.6417,2.0,257.2574168,17.18318073,-99999.0,'11111222,11111222,99999999' 
TABS,ioos:station:wmo:42051:1,2001-03-27T17:00:00Z,29.6350,-93.6417,2.0,259.8547578,16.97539985,-99999.0,'11111222,11111222,99999999' 
TABS,ioos:station:wmo:42051:1,2001-03-27T17:30:00Z,29.6350,-93.6417,2.0,263.1769386,18.09816013,-99999.0,'11111222,11111222,99999999' 
TABS,ioos:station:wmo:42051:1,2001-03-27T18:00:00Z,29.6350,-93.6417,2.0,270.8701705,20.42235295,-99999.0,'11111222,11111222,99999999' 
TABS,ioos:station:wmo:42051:1,2001-03-27T18:30:00Z,29.6350,-93.6417,2.0,266.6392891,21.83754565,-99999.0,'11111222,11111222,99999999' 
TABS,ioos:station:wmo:42051:1,2001-03-27T19:00:00Z,29.6350,-93.6417,2.0,270.5406467,19.09084859,-99999.0,'11111222,11111222,99999999' 
TABS,ioos:station:wmo:42051:1,2001-03-27T19:30:00Z,29.6350,-93.6417,2.0,259.2178515,21.06180667,-99999.0,'11111222,11111222,99999999' 
TABS,ioos:station:wmo:42051:1,2001-03-27T20:00:00Z,29.6350,-93.6417,2.0,263.1729217,21.20030424,-99999.0,'11111222,11111222,99999999' 
TABS,ioos:station:wmo:42051:1,2001-03-27T20:30:00Z,29.6350,-93.6417,2.0,259.5360672,23.89739735,-99999.0,'11111222,11111222,99999999' 
TABS,ioos:station:wmo:42051:1,2001-03-27T21:00:00Z,29.6350,-93.6417,2.0,256.8693375,29.75799052,-99999.0,'11111222,11111222,99999999' 
TABS,ioos:station:wmo:42051:1,2001-03-27T21:30:00Z,29.6350,-93.6417,2.0,263.4757461,24.11616056,-99999.0,'11111222,11111222,99999999' 
TABS,ioos:station:wmo:42051:1,2001-03-27T22:00:00Z,29.6350,-93.6417,2.0,264.7671653,27.3037763,-99999.0,'11111222,11111222,99999999' 
TABS,ioos:station:wmo:42051:1,2001-03-27T22:30:00Z,29.6350,-93.6417,2.0,247.0123643,33.10914224,-99999.0,'11111222,11111222,99999999' 
TABS,ioos:station:wmo:42051:1,2001-03-27T23:00:00Z,29.6350,-93.6417,2.0,253.0586705,28.3816032,-99999.0,'11111222,11111222,99999999' 
TABS,ioos:station:wmo:42051:1,2001-03-27T23:30:00Z,29.6350,-93.6417,2.0,253.76799,28.87080359,-99999.0,'11111222,11111222,99999999' 
TABS,ioos:station:wmo:42051:1,2001-03-28T00:00:00Z,29.6350,-93.6417,2.0,249.0128755,31.60668442,-99999.0,'11111222,11111222,99999999' 
TABS,ioos:station:wmo:42051:1,2001-03-28T00:30:00Z,29.6350,-93.6417,2.0,255.9583137,27.4914132,-99999.0,'11111222,11111222,99999999' 
TABS,ioos:station:wmo:42051:1,2001-03-28T01:00:00Z,29.6350,-93.6417,2.0,247.5370246,33.63166514,-99999.0,'11111222,11111222,99999999' 
TABS,ioos:station:wmo:42051:1,2001-03-28T01:30:00Z,29.6350,-93.6417,2.0,251.0196337,33.57542107,-99999.0,'11111222,11111222,99999999' 
TABS,ioos:station:wmo:42051:1,2001-03-28T02:00:00Z,29.6350,-93.6417,2.0,252.907472,31.84655711,-99999.0,'11111222,11111222,99999999' 
TABS,ioos:station:wmo:42051:1,2001-03-28T02:30:00Z,29.6350,-93.6417,2.0,254.1056597,30.59982516,-99999.0,'11111222,11111222,99999999' 
TABS,ioos:station:wmo:42051:1,2001-03-28T03:00:00Z,29.6350,-93.6417,2.0,257.6620587,34.11792784,-99999.0,'11111222,11111222,99999999' 
TABS,ioos:station:wmo:42051:1,2001-03-28T03:30:00Z,29.6350,-93.6417,2.0,253.2778166,31.62742639,-99999.0,'11111222,11111222,99999999' 
TABS,ioos:station:wmo:42051:1,2001-03-28T04:00:00Z,29.6350,-93.6417,2.0,255.3964623,42.1620315,-99999.0,'11111222,11111222,99999999' 
TABS,ioos:station:wmo:42051:1,2001-03-28T04:30:00Z,29.6350,-93.6417,2.0,257.4462419,27.83543425,-99999.0,'11111222,11111222,99999999' 
TABS,ioos:station:wmo:42051:1,2001-03-28T05:00:00Z,29.6350,-93.6417,2.0,264.3007122,29.20434214,-99999.0,'11111222,11111222,99999999' 
TABS,ioos:station:wmo:42051:1,2001-03-28T05:30:00Z,29.6350,-93.6417,2.0,254.2401762,41.05316797,-99999.0,'11111222,11111222,99999999' 
TABS,ioos:station:wmo:42051:1,2001-03-28T06:00:00Z,29.6350,-93.6417,2.0,265.0815673,37.90956871,-99999.0,'11111222,11111222,99999999' 
TABS,ioos:station:wmo:42051:1,2001-03-28T06:30:00Z,29.6350,-93.6417,2.0,255.7165242,40.53292982,-99999.0,'11111222,11111222,99999999' 
TABS,ioos:station:wmo:42051:1,2001-03-28T07:00:00Z,29.6350,-93.6417,2.0,264.0334188,50.41306577,-99999.0,'11111222,11111222,99999999' 
TABS,ioos:station:wmo:42051:1,2001-03-28T07:30:00Z,29.6350,-93.6417,2.0,263.465689,56.50703054,-99999.0,'11111222,11111222,99999999' 
TABS,ioos:station:wmo:42051:1,2001-03-28T08:00:00Z,29.6350,-93.6417,2.0,266.3229362,46.31532468,-99999.0,'11111222,11111222,99999999' 
TABS,ioos:station:wmo:42051:1,2001-03-28T08:30:00Z,29.6350,-93.6417,2.0,262.2323208,48.90872826,-99999.0,'11111222,11111222,99999999' 
TABS,ioos:station:wmo:42051:1,2001-03-28T09:00:00Z,29.6350,-93.6417,2.0,261.1088661,50.92183225,-99999.0,'11111222,11111222,99999999' 
TABS,ioos:station:wmo:42051:1,2001-03-28T09:30:00Z,29.6350,-93.6417,2.0,260.6879054,47.52626747,-99999.0,'11111222,11111222,99999999' 
TABS,ioos:station:wmo:42051:1,2001-03-28T10:00:00Z,29.6350,-93.6417,2.0,256.8414131,55.39436524,-99999.0,'11111222,11111222,99999999' 
TABS,ioos:station:wmo:42051:1,2001-03-28T10:30:00Z,29.6350,-93.6417,2.0,263.1803527,54.15309594,-99999.0,'11111222,11111222,99999999' 
TABS,ioos:station:wmo:42051:1,2001-03-28T11:00:00Z,29.6350,-93.6417,2.0,261.9883662,46.35236348,-99999.0,'11111222,11111222,99999999' 
TABS,ioos:station:wmo:42051:1,2001-03-28T11:30:00Z,29.6350,-93.6417,2.0,257.7764809,42.0840231,-99999.0,'11111222,11111222,99999999' 
TABS,ioos:station:wmo:42051:1,2001-03-28T12:00:00Z,29.6350,-93.6417,2.0,254.1711853,45.75489919,-99999.0,'11111222,11111222,99999999' 
TABS,ioos:station:wmo:42051:1,2001-03-28T12:30:00Z,29.6350,-93.6417,2.0,252.8685762,50.58424261,-99999.0,'11111222,11111222,99999999' 
TABS,ioos:station:wmo:42051:1,2001-03-28T13:00:00Z,29.6350,-93.6417,2.0,250.5808723,55.25313566,-99999.0,'11111222,11111222,99999999' 
TABS,ioos:station:wmo:42051:1,2001-03-28T13:30:00Z,29.6350,-93.6417,2.0,259.7235868,55.10387736,-99999.0,'11111222,11111222,99999999' 
TABS,ioos:station:wmo:42051:1,2001-03-28T14:00:00Z,29.6350,-93.6417,2.0,265.2638465,63.10543717,-99999.0,'11111222,11111222,99999999' 
TABS,ioos:station:wmo:42051:1,2001-03-28T14:30:00Z,29.6350,-93.6417,2.0,260.9469342,64.38193302,-99999.0,'11111222,11111222,99999999' 
TABS,ioos:station:wmo:42051:1,2001-03-28T15:00:00Z,29.6350,-93.6417,2.0,261.51469,58.6924024,-99999.0,'11111222,11111222,99999999' 
TABS,ioos:station:wmo:42051:1,2001-03-28T15:30:00Z,29.6350,-93.6417,2.0,256.2617335,61.47876381,-99999.0,'11111222,11111222,99999999' 
TABS,ioos:station:wmo:42051:1,2001-03-28T16:00:00Z,29.6350,-93.6417,2.0,260.0817851,70.31073673,-99999.0,'11111222,11111222,99999999' 
TABS,ioos:station:wmo:42051:1,2001-03-28T16:30:00Z,29.6350,-93.6417,2.0,260.3993157,60.08142808,-99999.0,'11111222,11111222,99999999' 
TABS,ioos:station:wmo:42051:1,2001-03-28T17:00:00Z,29.6350,-93.6417,2.0,259.9137926,60.12920172,-99999.0,'11111222,11111222,99999999' 
TABS,ioos:station:wmo:42051:1,2001-03-28T17:30:00Z,29.6350,-93.6417,2.0,257.2032419,61.08719833,-99999.0,'11111222,11111222,99999999' 
TABS,ioos:station:wmo:42051:1,2001-03-28T18:00:00Z,29.6350,-93.6417,2.0,257.4940592,56.11123684,-99999.0,'11111222,11111222,99999999' 
TABS,ioos:station:wmo:42051:1,2001-03-28T18:30:00Z,29.6350,-93.6417,2.0,257.9097599,57.0554695,-99999.0,'11111222,11111222,99999999' 
TABS,ioos:station:wmo:42051:1,2001-03-28T19:00:00Z,29.6350,-93.6417,2.0,262.5042383,59.87157673,-99999.0,'11111222,11111222,99999999' 
TABS,ioos:station:wmo:42051:1,2001-03-28T19:30:00Z,29.6350,-93.6417,2.0,264.5889375,49.42019425,-99999.0,'11111222,11111222,99999999' 
TABS,ioos:station:wmo:42051:1,2001-03-28T20:00:00Z,29.6350,-93.6417,2.0,256.8602229,55.47226785,-99999.0,'11111222,11111222,99999999' 
TABS,ioos:station:wmo:42051:1,2001-03-28T20:30:00Z,29.6350,-93.6417,2.0,261.7718467,53.10662482,-99999.0,'11111222,11111222,99999999' 
TABS,ioos:station:wmo:42051:1,2001-03-28T21:00:00Z,29.6350,-93.6417,2.0,258.0619096,56.56328845,-99999.0,'11111222,11111222,99999999' 
TABS,ioos:station:wmo:42051:1,2001-03-28T21:30:00Z,29.6350,-93.6417,2.0,253.6264262,55.37570767,-99999.0,'11111222,11111222,99999999' 
TABS,ioos:station:wmo:42051:1,2001-03-28T22:00:00Z,29.6350,-93.6417,2.0,250.5410603,49.7410786,-99999.0,'11111222,11111222,99999999' 
TABS,ioos:station:wmo:42051:1,2001-03-28T22:30:00Z,29.6350,-93.6417,2.0,250.7775194,42.5840874,-99999.0,'11111222,11111222,99999999' 
TABS,ioos:station:wmo:42051:1,2001-03-28T23:00:00Z,29.6350,-93.6417,2.0,249.2767138,43.80400552,-99999.0,'11111222,11111222,99999999' 
TABS,ioos:station:wmo:42051:1,2001-03-28T23:30:00Z,29.6350,-93.6417,2.0,257.4197498,45.04128884,-99999.0,'11111222,11111222,99999999' 
TABS,ioos:station:wmo:42051:1,2001-03-29T00:00:00Z,29.6350,-93.6417,2.0,257.6595369,53.34240433,-99999.0,'11111222,11111222,99999999' 
TABS,ioos:station:wmo:42051:1,2001-03-29T00:30:00Z,29.6350,-93.6417,2.0,256.8659638,49.42276601,-99999.0,'11111222,11111222,99999999' 
TABS,ioos:station:wmo:42051:1,2001-03-29T01:00:00Z,29.6350,-93.6417,2.0,261.2243903,49.48929783,-99999.0,'11111222,11111222,99999999' 
TABS,ioos:station:wmo:42051:1,2001-03-29T01:30:00Z,29.6350,-93.6417,2.0,255.0162677,45.4864947,-99999.0,'11111222,11111222,99999999' 
TABS,ioos:station:wmo:42051:1,2001-03-29T02:00:00Z,29.6350,-93.6417,2.0,258.9291338,45.51699133,-99999.0,'11111222,11111222,99999999' 
TABS,ioos:station:wmo:42051:1,2001-03-29T02:30:00Z,29.6350,-93.6417,2.0,252.0378403,44.03621805,-99999.0,'11111222,11111222,99999999' 
TABS,ioos:station:wmo:42051:1,2001-03-29T03:00:00Z,29.6350,-93.6417,2.0,260.107946,55.06863082,-99999.0,'11111222,11111222,99999999' 
TABS,ioos:station:wmo:42051:1,2001-03-29T03:30:00Z,29.6350,-93.6417,2.0,262.8181995,41.59630873,-99999.0,'11111222,11111222,99999999' 
TABS,ioos:station:wmo:42051:1,2001-03-29T04:00:00Z,29.6350,-93.6417,2.0,242.7029008,40.62372336,-99999.0,'11111222,11111222,99999999' 
TABS,ioos:station:wmo:42051:1,2001-03-29T04:30:00Z,29.6350,-93.6417,2.0,249.4249963,54.12217013,-99999.0,'11111222,11111222,99999999' 
TABS,ioos:station:wmo:42051:1,2001-03-29T05:00:00Z,29.6350,-93.6417,2.0,267.6352884,48.48127061,-99999.0,'11111222,11111222,99999999' 
TABS,ioos:station:wmo:42051:1,2001-03-29T05:30:00Z,29.6350,-93.6417,2.0,249.9934197,33.90604076,-99999.0,'11111222,11111222,99999999' 
TABS,ioos:station:wmo:42051:1,2001-03-29T06:00:00Z,29.6350,-93.6417,2.0,236.9648331,54.81073709,-99999.0,'11111222,11111222,99999999' 
TABS,ioos:station:wmo:42051:1,2001-03-29T06:30:00Z,29.6350,-93.6417,2.0,247.3439846,55.42693389,-99999.0,'11111222,11111222,99999999' 
TABS,ioos:station:wmo:42051:1,2001-03-29T07:00:00Z,29.6350,-93.6417,2.0,250.1359253,58.21349414,-99999.0,'11111222,11111222,99999999' 
TABS,ioos:station:wmo:42051:1,2001-03-29T07:30:00Z,29.6350,-93.6417,2.0,254.4292682,78.27247345,-99999.0,'11111222,11111222,99999999' 
TABS,ioos:station:wmo:42051:1,2001-03-29T08:00:00Z,29.6350,-93.6417,2.0,259.8185131,69.98193553,-99999.0,'11111222,11111222,99999999' 
TABS,ioos:station:wmo:42051:1,2001-03-29T08:30:00Z,29.6350,-93.6417,2.0,256.5330478,69.5214226,-99999.0,'11111222,11111222,99999999' 
TABS,ioos:station:wmo:42051:1,2001-03-29T09:00:00Z,29.6350,-93.6417,2.0,261.2855286,62.44077194,-99999.0,'11111222,11111222,99999999' 
TABS,ioos:station:wmo:42051:1,2001-03-29T09:30:00Z,29.6350,-93.6417,2.0,258.5616726,62.32782444,-99999.0,'11111222,11111222,99999999' 
TABS,ioos:station:wmo:42051:1,2001-03-29T10:00:00Z,29.6350,-93.6417,2.0,262.1295347,65.43633547,-99999.0,'11111222,11111222,99999999' 
TABS,ioos:station:wmo:42051:1,2001-03-29T10:30:00Z,29.6350,-93.6417,2.0,255.3505074,69.15813907,-99999.0,'11111222,11111222,99999999' 
TABS,ioos:station:wmo:42051:1,2001-03-29T11:00:00Z,29.6350,-93.6417,2.0,257.488777,62.22758954,-99999.0,'11111222,11111222,99999999' 
TABS,ioos:station:wmo:42051:1,2001-03-29T11:30:00Z,29.6350,-93.6417,2.0,262.4273129,59.26684233,-99999.0,'11111222,11111222,99999999' 
TABS,ioos:station:wmo:42051:1,2001-03-29T12:00:00Z,29.6350,-93.6417,2.0,266.4255265,62.88230276,-99999.0,'11111222,11111222,99999999' 
TABS,ioos:station:wmo:42051:1,2001-03-29T12:30:00Z,29.6350,-93.6417,2.0,262.5991729,53.41493518,-99999.0,'11111222,11111222,99999999' 
TABS,ioos:station:wmo:42051:1,2001-03-29T13:00:00Z,29.6350,-93.6417,2.0,265.2800477,52.8692595,-99999.0,'11111222,11111222,99999999' 
TABS,ioos:station:wmo:42051:1,2001-03-29T13:30:00Z,29.6350,-93.6417,2.0,273.6932125,52.16831605,-99999.0,'11111222,11111222,99999999' 
TABS,ioos:station:wmo:42051:1,2001-03-29T14:00:00Z,29.6350,-93.6417,2.0,265.3612238,58.49156264,-99999.0,'11111222,11111222,99999999' 
TABS,ioos:station:wmo:42051:1,2001-03-29T14:30:00Z,29.6350,-93.6417,2.0,268.7226965,46.22147769,-99999.0,'11111222,11111222,99999999' 
TABS,ioos:station:wmo:42051:1,2001-03-29T15:00:00Z,29.6350,-93.6417,2.0,266.1319901,46.99703182,-99999.0,'11111222,11111222,99999999' 
TABS,ioos:station:wmo:42051:1,2001-03-29T15:30:00Z,29.6350,-93.6417,2.0,275.1926181,46.741795,-99999.0,'11111222,11111222,99999999' 
TABS,ioos:station:wmo:42051:1,2001-03-29T16:00:00Z,29.6350,-93.6417,2.0,270.7919359,58.63559499,-99999.0,'11111222,11111222,99999999' 
TABS,ioos:station:wmo:42051:1,2001-03-29T16:30:00Z,29.6350,-93.6417,2.0,273.0773688,61.47863125,-99999.0,'11111222,11111222,99999999' 
TABS,ioos:station:wmo:42051:1,2001-03-29T17:00:00Z,29.6350,-93.6417,2.0,272.1723064,60.95378741,-99999.0,'11111222,11111222,99999999' 
TABS,ioos:station:wmo:42051:1,2001-03-29T17:30:00Z,29.6350,-93.6417,2.0,281.5594613,59.98660934,-99999.0,'11111222,11111222,99999999' 
TABS,ioos:station:wmo:42051:1,2001-03-29T18:00:00Z,29.6350,-93.6417,2.0,288.6808964,56.07402251,-99999.0,'11111222,11111222,99999999' 
TABS,ioos:station:wmo:42051:1,2001-03-29T18:30:00Z,29.6350,-93.6417,2.0,301.1917461,46.1866485,-99999.0,'11111222,11111222,99999999' 
TABS,ioos:station:wmo:42051:1,2001-03-29T19:00:00Z,29.6350,-93.6417,2.0,294.9076502,44.21215218,-99999.0,'11111222,11111222,99999999' 
TABS,ioos:station:wmo:42051:1,2001-03-29T19:30:00Z,29.6350,-93.6417,2.0,292.8567864,46.39270309,-99999.0,'11111222,11111222,99999999' 
TABS,ioos:station:wmo:42051:1,2001-03-29T20:00:00Z,29.6350,-93.6417,2.0,282.005098,45.77098754,-99999.0,'11111222,11111222,99999999' 
TABS,ioos:station:wmo:42051:1,2001-03-29T20:30:00Z,29.6350,-93.6417,2.0,287.31338,52.48806055,-99999.0,'11111222,11111222,99999999' 
TABS,ioos:station:wmo:42051:1,2001-03-29T21:00:00Z,29.6350,-93.6417,2.0,289.7270005,44.46976164,-99999.0,'11111222,11111222,99999999' 
TABS,ioos:station:wmo:42051:1,2001-03-29T21:30:00Z,29.6350,-93.6417,2.0,297.5942871,44.58096679,-99999.0,'11111222,11111222,99999999' 
TABS,ioos:station:wmo:42051:1,2001-03-29T22:00:00Z,29.6350,-93.6417,2.0,303.128804,47.53731692,-99999.0,'11111222,11111222,99999999' 
TABS,ioos:station:wmo:42051:1,2001-03-29T22:30:00Z,29.6350,-93.6417,2.0,287.9785215,39.26724971,-99999.0,'11111222,11111222,99999999' 
TABS,ioos:station:wmo:42051:1,2001-03-29T23:00:00Z,29.6350,-93.6417,2.0,272.9735698,38.75216252,-99999.0,'11111222,11111222,99999999' 
TABS,ioos:station:wmo:42051:1,2001-03-29T23:30:00Z,29.6350,-93.6417,2.0,286.8301324,50.46129309,-99999.0,'11111222,11111222,99999999' 
TABS,ioos:station:wmo:42051:1,2001-03-30T00:00:00Z,29.6350,-93.6417,2.0,284.3395416,43.12343678,-99999.0,'11111222,11111222,99999999' 
TABS,ioos:station:wmo:42051:1,2001-03-30T00:30:00Z,29.6350,-93.6417,2.0,282.3781011,40.30690388,-99999.0,'11111222,11111222,99999999' 
TABS,ioos:station:wmo:42051:1,2001-03-30T01:00:00Z,29.6350,-93.6417,2.0,289.1456615,23.72206779,-99999.0,'11111222,11111222,99999999' 
TABS,ioos:station:wmo:42051:1,2001-03-30T01:30:00Z,29.6350,-93.6417,2.0,308.8241099,18.00847023,-99999.0,'11111222,11111222,99999999' 
TABS,ioos:station:wmo:42051:1,2001-03-30T02:00:00Z,29.6350,-93.6417,2.0,301.8597379,9.984152443,-99999.0,'11133222,11111222,99999999' 
TABS,ioos:station:wmo:42051:1,2001-03-30T02:30:00Z,29.6350,-93.6417,2.0,260.6380805,9.3444529,-99999.0,'11133222,11111222,99999999' 
TABS,ioos:station:wmo:42051:1,2001-03-30T03:00:00Z,29.6350,-93.6417,2.0,241.6868602,12.9036429,-99999.0,'11111222,11111222,99999999' 
TABS,ioos:station:wmo:42051:1,2001-03-30T03:30:00Z,29.6350,-93.6417,2.0,251.2840897,16.14362103,-99999.0,'11111222,11111222,99999999' 
TABS,ioos:station:wmo:42051:1,2001-03-30T04:00:00Z,29.6350,-93.6417,2.0,235.6282075,22.38928315,-99999.0,'11111222,11111222,99999999' 
TABS,ioos:station:wmo:42051:1,2001-03-30T04:30:00Z,29.6350,-93.6417,2.0,236.5930993,24.10201859,-99999.0,'11111222,11111222,99999999' 
TABS,ioos:station:wmo:42051:1,2001-03-30T05:00:00Z,29.6350,-93.6417,2.0,228.5650469,25.35642917,-99999.0,'11111222,11111222,99999999' 
TABS,ioos:station:wmo:42051:1,2001-03-30T05:30:00Z,29.6350,-93.6417,2.0,229.5411962,23.93292711,-99999.0,'11111222,11111222,99999999' 
TABS,ioos:station:wmo:42051:1,2001-03-30T06:00:00Z,29.6350,-93.6417,2.0,238.107077,24.2273585,-99999.0,'11111222,11111222,99999999' 
TABS,ioos:station:wmo:42051:1,2001-03-30T06:30:00Z,29.6350,-93.6417,2.0,233.868592,25.5921277,-99999.0,'11111222,11111222,99999999' 
TABS,ioos:station:wmo:42051:1,2001-03-30T07:00:00Z,29.6350,-93.6417,2.0,241.9924537,21.67883761,-99999.0,'11111222,11111222,99999999' 
TABS,ioos:station:wmo:42051:1,2001-03-30T07:30:00Z,29.6350,-93.6417,2.0,230.0122378,25.81620615,-99999.0,'11111222,11111222,99999999' 
TABS,ioos:station:wmo:42051:1,2001-03-30T08:00:00Z,29.6350,-93.6417,2.0,250.9411826,26.7354783,-99999.0,'11111222,11111222,99999999' 
TABS,ioos:station:wmo:42051:1,2001-03-30T08:30:00Z,29.6350,-93.6417,2.0,247.5771156,30.14940961,-99999.0,'11111222,11111222,99999999' 
TABS,ioos:station:wmo:42051:1,2001-03-30T09:00:00Z,29.6350,-93.6417,2.0,239.6149441,30.54545793,-99999.0,'11111222,11111222,99999999' 
TABS,ioos:station:wmo:42051:1,2001-03-30T09:30:00Z,29.6350,-93.6417,2.0,249.8048,37.68682794,-99999.0,'11111222,11111222,99999999' 
TABS,ioos:station:wmo:42051:1,2001-03-30T10:00:00Z,29.6350,-93.6417,2.0,259.6071185,36.25475417,-99999.0,'11111222,11111222,99999999' 
TABS,ioos:station:wmo:42051:1,2001-03-30T10:30:00Z,29.6350,-93.6417,2.0,254.0777862,43.41555712,-99999.0,'11111222,11111222,99999999' 
TABS,ioos:station:wmo:42051:1,2001-03-30T11:00:00Z,29.6350,-93.6417,2.0,268.729254,42.40042099,-99999.0,'11111222,11111222,99999999' 
TABS,ioos:station:wmo:42051:1,2001-03-30T11:30:00Z,29.6350,-93.6417,2.0,266.5423589,37.8088085,-99999.0,'11111222,11111222,99999999' 
TABS,ioos:station:wmo:42051:1,2001-03-30T12:00:00Z,29.6350,-93.6417,2.0,268.085289,37.12071659,-99999.0,'11111222,11111222,99999999' 
TABS,ioos:station:wmo:42051:1,2001-03-30T12:30:00Z,29.6350,-93.6417,2.0,272.0502916,36.62343649,-99999.0,'11111222,11111222,99999999' 
TABS,ioos:station:wmo:42051:1,2001-03-30T13:00:00Z,29.6350,-93.6417,2.0,267.0875285,39.76134429,-99999.0,'11111222,11111222,99999999' 
TABS,ioos:station:wmo:42051:1,2001-03-30T13:30:00Z,29.6350,-93.6417,2.0,272.8690152,41.56208007,-99999.0,'11111222,11111222,99999999' 
TABS,ioos:station:wmo:42051:1,2001-03-30T14:00:00Z,29.6350,-93.6417,2.0,267.5409039,38.69562249,-99999.0,'11111222,11111222,99999999' 
TABS,ioos:station:wmo:42051:1,2001-03-30T14:30:00Z,29.6350,-93.6417,2.0,271.2231076,35.14800279,-99999.0,'11111222,11111222,99999999' 
TABS,ioos:station:wmo:42051:1,2001-03-30T15:00:00Z,29.6350,-93.6417,2.0,275.4294974,33.82172231,-99999.0,'11111222,11111222,99999999' 
TABS,ioos:station:wmo:42051:1,2001-03-30T15:30:00Z,29.6350,-93.6417,2.0,272.4261044,30.00688754,-99999.0,'11111222,11111222,99999999' 
TABS,ioos:station:wmo:42051:1,2001-03-30T16:00:00Z,29.6350,-93.6417,2.0,277.1870383,24.22027663,-99999.0,'11111222,11111222,99999999' 
TABS,ioos:station:wmo:42051:1,2001-03-30T16:30:00Z,29.6350,-93.6417,2.0,274.9367509,24.52095023,-99999.0,'11111222,11111222,99999999' 
TABS,ioos:station:wmo:42051:1,2001-03-30T17:00:00Z,29.6350,-93.6417,2.0,271.0691406,20.37354412,-99999.0,'11111222,11111222,99999999' 
TABS,ioos:station:wmo:42051:1,2001-03-30T17:30:00Z,29.6350,-93.6417,2.0,268.6711439,21.13568073,-99999.0,'11111222,11111222,99999999' 
TABS,ioos:station:wmo:42051:1,2001-03-30T18:00:00Z,29.6350,-93.6417,2.0,262.3679814,20.48141597,-99999.0,'11111222,11111222,99999999' 
TABS,ioos:station:wmo:42051:1,2001-03-30T18:30:00Z,29.6350,-93.6417,2.0,267.0456622,22.50990893,-99999.0,'11111222,11111222,99999999' 
TABS,ioos:station:wmo:42051:1,2001-03-30T19:00:00Z,29.6350,-93.6417,2.0,278.1914652,21.26695559,-99999.0,'11111222,11111222,99999999' 
TABS,ioos:station:wmo:42051:1,2001-03-30T19:30:00Z,29.6350,-93.6417,2.0,280.3304514,22.36247079,-99999.0,'11111222,11111222,99999999' 
TABS,ioos:station:wmo:42051:1,2001-03-30T20:00:00Z,29.6350,-93.6417,2.0,274.0426672,20.71152336,-99999.0,'11111222,11111222,99999999' 
TABS,ioos:station:wmo:42051:1,2001-03-30T20:30:00Z,29.6350,-93.6417,2.0,292.2579026,19.82731954,-99999.0,'11111222,11111222,99999999' 
TABS,ioos:station:wmo:42051:1,2001-03-30T21:00:00Z,29.6350,-93.6417,2.0,313.6088877,17.18068974,-99999.0,'11111222,11111222,99999999' 